Bookmark and Share
Track history (hours):
 

Schillplate

Last reported at 2014-Apr-17 23:33 UTC. Time now 2014-Apr-20 16:00 UTC.
Position N 55°36' E 015°18'.

Length 86 m; draft 5.2 m.

Type: Cargo ship. MMSI: 236111603.

NotesDate/timePositionNaut miles runAvg speedWind from/ knotsBaromVisibWave heightAir tempDewpointWater temp
2014-Apr-17 23:33N 55°36' E 015°18'1111.1
2014-Apr-17 22:34N 55°30' E 015°01'1111.1
2014-Apr-17 21:33N 55°25' E 014°44'1111.3
2014-Apr-17 20:34N 55°17' E 014°30'1111.3
2014-Apr-17 19:34N 55°08' E 014°17'1211.6
2014-Apr-17 18:33N 55°00' E 014°02'1211.7
2014-Apr-17 17:33N 54°56' E 013°43'1211.3
2014-Apr-17 16:32N 54°52' E 013°24'1111.0
2014-Apr-17 15:33N 54°49' E 013°06'1110.9
2014-Apr-17 14:33N 54°45' E 012°49'1111.3
2014-Apr-17 13:33N 54°40' E 012°32'1111.1
2014-Apr-17 12:33N 54°32' E 012°17'1010.0
2014-Apr-17 11:33N 54°25' E 012°05'1111.1
2014-Apr-17 10:34N 54°25' E 011°47'1110.7
2014-Apr-17 09:34N 54°29' E 011°30'1111.1
2014-Apr-17 08:33N 54°34' E 011°12'59 8.1
2014-Apr-17 01:17N 54°14' E 009°36'6 8.1
2014-Apr-17 00:33N 54°11' E 009°28'5 5.3
2014-Apr-16 23:33N 54°08' E 009°20'8 8.3
2014-Apr-16 22:34N 54°00' E 009°18'7 6.8
2014-Apr-16 21:33N 53°55' E 009°11'5 4.7
2014-Apr-16 20:33N 53°52' E 009°04'7 7.4
2014-Apr-16 19:33N 53°50' E 008°52'7 7.0
2014-Apr-16 18:34N 53°54' E 008°41'7 7.2
2014-Apr-16 17:33N 53°58' E 008°32'8 7.9
2014-Apr-16 16:33N 53°59' E 008°18'10 9.9
2014-Apr-16 15:34N 53°58' E 008°02'9 9.3
2014-Apr-16 14:33N 53°49' E 008°07'1313.0
2014-Apr-16 13:33N 53°40' E 008°23'10 9.8
2014-Apr-16 12:34N 53°33' E 008°34'8 8.3
2014-Apr-16 11:33N 53°25' E 008°30'9 9.0
2014-Apr-16 10:33N 53°16' E 008°29'8 8.1
2014-Apr-16 09:33N 53°10' E 008°38'4 3.8
2014-Apr-16 08:33N 53°07' E 008°43'0 0.3
2014-Apr-16 07:33N 53°07' E 008°43'0 0.0
2014-Apr-16 06:33N 53°07' E 008°43'0 0.0
2014-Apr-16 05:33N 53°07' E 008°43'0 0.0
2014-Apr-16 04:33N 53°07' E 008°43'0 0.0
2014-Apr-16 03:33N 53°07' E 008°43'0 0.0
2014-Apr-16 02:33N 53°07' E 008°43'0 0.0
2014-Apr-16 01:33N 53°07' E 008°43'0 0.0
2014-Apr-16 00:33N 53°07' E 008°43'0 0.0
2014-Apr-15 23:33N 53°07' E 008°43'0 0.0
2014-Apr-15 22:33N 53°07' E 008°43'0 0.0
2014-Apr-15 21:33N 53°07' E 008°43'0 0.0
2014-Apr-15 20:33N 53°07' E 008°43'0 0.0
2014-Apr-15 19:33N 53°07' E 008°43'0 0.0
2014-Apr-15 18:33N 53°07' E 008°43'0 0.0
2014-Apr-15 17:33N 53°07' E 008°43'0 0.0
2014-Apr-15 16:33N 53°07' E 008°43'0 0.0
2014-Apr-15 15:33N 53°07' E 008°43'0 0.0
2014-Apr-15 14:33N 53°07' E 008°43'0 0.0
2014-Apr-15 12:34N 53°07' E 008°43'0 0.3
2014-Apr-15 11:34N 53°07' E 008°43'2 1.7
2014-Apr-15 10:34N 53°08' E 008°40'1110.9
2014-Apr-15 09:33N 53°16' E 008°29'1414.2
2014-Apr-15 08:34N 53°31' E 008°31'2 1.6
2014-Apr-15 07:31N 53°31' E 008°34'0 0.1
2014-Apr-15 06:31N 53°31' E 008°34'0 0.1
2014-Apr-15 05:31N 53°32' E 008°34'0 0.0
2014-Apr-15 03:31N 53°32' E 008°34'0 0.0
2014-Apr-15 02:31N 53°32' E 008°34'0 0.0
2014-Apr-15 01:31N 53°32' E 008°34'0 0.1
2014-Apr-15 00:31N 53°31' E 008°34'0 0.0
2014-Apr-14 23:31N 53°31' E 008°34'0 0.0
2014-Apr-14 22:31N 53°31' E 008°34'0 0.0
2014-Apr-14 21:31N 53°31' E 008°34'0 0.0
2014-Apr-14 20:31N 53°31' E 008°34'0 0.0
2014-Apr-14 19:31N 53°31' E 008°34'0 0.0
2014-Apr-14 18:31N 53°31' E 008°34'0 0.1
2014-Apr-14 17:31N 53°31' E 008°34'0 0.1
2014-Apr-14 16:31N 53°32' E 008°34'0 0.0
2014-Apr-14 15:31N 53°32' E 008°34'0 0.0
2014-Apr-14 14:31N 53°32' E 008°34'0 0.1
2014-Apr-14 13:31N 53°31' E 008°34'0 0.1
2014-Apr-14 11:31N 53°31' E 008°34'0 0.0
2014-Apr-14 10:31N 53°31' E 008°34'0 0.0
2014-Apr-14 09:31N 53°31' E 008°34'0 0.0
2014-Apr-14 08:31N 53°31' E 008°34'0 0.0
2014-Apr-14 07:31N 53°31' E 008°34'0 0.1
2014-Apr-14 06:31N 53°31' E 008°34'0 0.1
2014-Apr-14 05:31N 53°31' E 008°34'14 2.0
2014-Apr-13 22:33N 53°42' E 008°19'1312.6
2014-Apr-13 21:33N 53°50' E 008°03'7 7.0
2014-Apr-13 20:30N 53°54' E 007°53'0 0.0
2014-Apr-13 19:26N 53°54' E 007°53'0 0.1
2014-Apr-13 18:17N 53°54' E 007°52'0 0.0
2014-Apr-13 17:32N 53°54' E 007°52'0 0.0
2014-Apr-13 16:27N 53°54' E 007°52'0 0.0
2014-Apr-13 15:33N 53°54' E 007°52'0 0.0
2014-Apr-13 14:33N 53°54' E 007°52'0 0.0
2014-Apr-13 13:33N 53°54' E 007°52'0 0.0
2014-Apr-13 12:33N 53°54' E 007°52'0 0.0
2014-Apr-13 11:33N 53°54' E 007°52'0 0.0
2014-Apr-13 10:27N 53°54' E 007°52'0 0.0
2014-Apr-13 09:30N 53°54' E 007°52'0 0.1
2014-Apr-13 08:30N 53°54' E 007°52'0 0.0
2014-Apr-13 07:33N 53°54' E 007°52'0 0.0
2014-Apr-13 06:33N 53°54' E 007°52'0 0.0
2014-Apr-13 05:33N 53°54' E 007°52'0 0.0
2014-Apr-13 04:30N 53°54' E 007°52'0 0.0
2014-Apr-13 03:30N 53°54' E 007°52'0 0.0
2014-Apr-13 02:30N 53°54' E 007°52'0 0.0
2014-Apr-13 01:33N 53°54' E 007°52'0 0.0
2014-Apr-13 00:33N 53°54' E 007°52'0 0.0
2014-Apr-12 23:33N 53°54' E 007°52'0 0.0
2014-Apr-12 22:30N 53°54' E 007°52'0 0.0
2014-Apr-12 21:33N 53°54' E 007°52'0 0.0
2014-Apr-12 20:33N 53°54' E 007°52'0 0.0
2014-Apr-12 19:33N 53°54' E 007°52'0 0.0
2014-Apr-12 18:34N 53°54' E 007°52'0 0.0
2014-Apr-12 17:33N 53°54' E 007°52'0 0.0
2014-Apr-12 16:33N 53°54' E 007°52'0 0.0
2014-Apr-12 15:34N 53°54' E 007°52'6 6.0
2014-Apr-12 14:33N 53°55' E 007°42'8 8.5
2014-Apr-12 13:33N 53°53' E 007°28'8 8.0
2014-Apr-12 12:33N 53°52' E 007°14'36 8.6
2014-Apr-12 08:25N 53°43' E 006°16'9 9.6
2014-Apr-12 07:29N 53°40' E 006°01'9 9.8
2014-Apr-12 06:33N 53°37' E 005°47'1010.0
2014-Apr-12 05:32N 53°34' E 005°31'1010.2
2014-Apr-12 04:33N 53°31' E 005°15'1010.5
2014-Apr-12 03:34N 53°27' E 004°58'1110.6
2014-Apr-12 02:30N 53°21' E 004°42'2310.3
2014-Apr-12 00:15N 53°01' E 004°23'16 9.2
2014-Apr-11 22:31N 52°47' E 004°10'11 8.8
2014-Apr-11 21:18N 52°39' E 003°59'7 8.5
2014-Apr-11 20:31N 52°34' E 003°52'9 8.3
2014-Apr-11 19:29N 52°27' E 003°43'8 8.0
2014-Apr-11 18:32N 52°20' E 003°38'25 8.1
2014-Apr-11 15:27N 51°57' E 003°23'9 9.5
2014-Apr-11 14:33N 51°49' E 003°19'3 2.8
2014-Apr-11 13:25N 51°46' E 003°18'0 0.0
2014-Apr-11 12:31N 51°46' E 003°18'0 0.0
2014-Apr-11 11:28N 51°46' E 003°18'0 0.0
2014-Apr-11 10:31N 51°46' E 003°18'0 0.0
2014-Apr-11 09:31N 51°46' E 003°18'0 0.1
2014-Apr-11 08:25N 51°46' E 003°18'0 0.0
2014-Apr-11 07:07N 51°46' E 003°18'0 0.0
2014-Apr-11 06:28N 51°46' E 003°18'0 0.0
2014-Apr-11 05:31N 51°46' E 003°18'0 0.0
2014-Apr-11 04:28N 51°46' E 003°18'0 0.0
2014-Apr-11 03:25N 51°46' E 003°18'0 0.1
2014-Apr-11 02:31N 51°46' E 003°18'0 0.0
2014-Apr-11 01:22N 51°46' E 003°18'0 0.0
2014-Apr-11 00:31N 51°46' E 003°18'0 0.0
2014-Apr-10 23:13N 51°46' E 003°18'0 0.0
2014-Apr-10 22:31N 51°46' E 003°18'0 0.0
2014-Apr-10 21:28N 51°46' E 003°18'0 0.1
2014-Apr-10 20:31N 51°46' E 003°18'0 0.0
2014-Apr-10 19:31N 51°46' E 003°18'0 0.0
2014-Apr-10 18:28N 51°46' E 003°18'0 0.0
2014-Apr-10 17:31N 51°46' E 003°18'0 0.0
2014-Apr-10 16:31N 51°46' E 003°18'0 0.0
2014-Apr-10 15:28N 51°46' E 003°18'0 0.1
2014-Apr-10 14:25N 51°46' E 003°18'0 0.0
2014-Apr-10 13:25N 51°46' E 003°18'0 0.0
2014-Apr-10 12:31N 51°46' E 003°18'0 0.0
2014-Apr-10 11:28N 51°46' E 003°18'0 0.0
2014-Apr-10 10:31N 51°46' E 003°18'0 0.0
2014-Apr-10 07:19N 51°46' E 003°18'0 0.1
2014-Apr-10 06:31N 51°46' E 003°18'0 0.0
2014-Apr-10 05:25N 51°46' E 003°18'0 0.0
2014-Apr-10 04:28N 51°46' E 003°18'0 0.1
2014-Apr-10 02:19N 51°46' E 003°18'0 0.0
2014-Apr-10 01:31N 51°46' E 003°18'0 0.0
2014-Apr-10 00:31N 51°46' E 003°18'0 0.0
2014-Apr-09 23:31N 51°46' E 003°18'6 6.7
2014-Apr-09 22:33N 51°39' E 003°20'1212.1
2014-Apr-09 21:33N 51°29' E 003°30'1010.2
2014-Apr-09 20:33N 51°23' E 003°43'6 5.5
2014-Apr-09 19:34N 51°19' E 003°50'8 8.1
2014-Apr-09 18:34N 51°11' E 003°48'3 2.5
2014-Apr-09 17:33N 51°09' E 003°47'0 0.0
2014-Apr-09 16:33N 51°09' E 003°47'0 0.0
2014-Apr-09 15:33N 51°09' E 003°47'0 0.0
2014-Apr-09 14:27N 51°09' E 003°47'0 0.0
2014-Apr-09 13:33N 51°09' E 003°47'0 0.0
2014-Apr-09 12:30N 51°09' E 003°47'0 0.0
2014-Apr-09 11:27N 51°09' E 003°47'0 0.0
2014-Apr-09 10:33N 51°09' E 003°47'0 0.0
2014-Apr-09 09:24N 51°09' E 003°47'0 0.0
2014-Apr-09 08:33N 51°09' E 003°47'0 0.0
2014-Apr-09 07:27N 51°09' E 003°47'0 0.0
2014-Apr-09 06:27N 51°09' E 003°47'0 0.0
2014-Apr-09 05:27N 51°09' E 003°47'0 0.0
2014-Apr-09 04:33N 51°09' E 003°47'0 0.0
2014-Apr-09 03:33N 51°09' E 003°47'0 0.0
2014-Apr-09 02:33N 51°09' E 003°47'0 0.0
2014-Apr-09 01:27N 51°09' E 003°47'0 0.0
2014-Apr-09 00:33N 51°09' E 003°47'4 3.8
2014-Apr-08 23:33N 51°12' E 003°48'7 6.7
2014-Apr-08 22:33N 51°19' E 003°50'2 2.3
2014-Apr-08 21:33N 51°21' E 003°48'10 9.5
2014-Apr-08 20:34N 51°26' E 003°34'10 9.5
2014-Apr-08 19:33N 51°33' E 003°25'1010.4
2014-Apr-08 18:33N 51°42' E 003°15'9 9.3
2014-Apr-08 17:33N 51°51' E 003°17'  

Dump ship's entire track history

sailing weather and tide predictions

Schillplate — ZDJJ8 — position and weather